Theta_e
336 343 348 355 355 356 351 357 359 365 363 361 354 353 354 356 360 359 360 356 357 356 357 355 354 353 351 349 349 347 347 344 347 347 346 347 348 349 347 346 346 343 344
332 336 340 345 353 356 357 356 356 360 359 360 360 358 353 355 354 356 357 356 355 357 356 355 352 353 350 351 347 352 346 344 346 343 339 334 335 341 344 339 338 337 342
328 333 334 338 341 346 354 358 359 359 361 361 362 363 361 359 358 353 353 351 351 355 356 356 355 352 352 350 348 347 344 341 345 345 339 329 324 330 339 338 337 336 340
325 331 333 336 339 341 345 353 359 361 360 361 357 358 352 350 353 357 355 358 353 351 353 349 351 348 347 346 346 344 346 344 339 343 343 340 338 329 326 334 335 337 337
323 327 329 333 337 341 344 349 355 359 362 361 362 357 352 354 355 358 358 359 358 357 354 352 349 346 346 344 342 345 343 343 341 338 339 340 339 337 331 326 329 332 333
321 323 326 331 333 336 341 348 352 355 358 359 360 358 358 356 351 352 348 351 352 350 345 350 350 346 346 346 348 348 348 344 345 343 342 341 337 333 331 328 328 329 330
320 320 320 320 330 332 341 347 349 350 354 355 354 352 355 353 351 351 351 347 342 340 344 342 341 340 339 338 338 334 337 340 340 340 340 340 339 339 337 333 329 328 332
317 317 321 324 323 329 341 343 345 345 348 348 348 349 346 343 343 343 341 338 336 335 339 336 337 335 334 333 331 329 331 335 334 333 330 334 335 337 335 331 328 325 326
316 317 318 322 324 332 341 342 342 344 343 341 338 339 338 339 336 334 334 333 330 329 330 331 330 330 329 328 327 324 325 324 324 327 325 322 323 325 325 328 330 326 318
315 317 321 333 336 338 338 339 338 337 338 338 333 331 330 331 330 329 328 327 327 326 326 324 325 323 324 324 323 319 319 319 319 318 320 319 318 318 319 320 320 322 322
320 327 329 332 333 335 334 334 333 330 329 327 326 327 325 325 325 323 322 322 323 320 317 317 316 314 316 317 317 317 315 313 313 314 314 313 315 313 314 315 315 315 316
326 328 328 330 330 330 330 329 327 324 324 323 323 323 323 322 322 320 320 320 318 317 315 315 315 315 316 318 311 310 311 311 311 312 313 313 313 311 311 310 311 312 313
324 325 326 326 326 324 323 321 320 321 321 321 320 321 320 319 318 318 318 317 316 316 316 316 315 314 315 309 307 307 307 308 309 310 310 309 309 306 306 306 306 306 308
323 323 324 323 321 320 319 318 318 319 319 317 317 316 316 315 315 315 316 315 315 314 314 314 314 314 307 306 305 306 306 307 309 309 309 307 307 304 303 304 304 304 303
321 320 318 318 318 317 318 317 316 317 317 315 313 313 314 313 313 313 315 315 315 314 313 313 313 313 306 303 303 303 305 306 307 309 309 308 308 310 307 304 302 302 300
316 317 317 316 316 314 313 313 313 313 312 311 309 311 312 313 314 315 314 313 313 312 312 311 310 308 305 300 301 302 303 307 307 306 308 308 309 308 308 306 305 304 300
315 316 315 315 315 315 317 314 314 313 311 309 308 309 311 312 312 313 311 310 311 312 311 310 308 309 309 299 299 301 303 306 307 305 305 305 308 309 308 307 306 305 304
315 316 316 317 317 317 316 316 312 311 309 309 309 310 310 310 311 310 309 309 310 310 309 309 310 308 306 300 298 300 305 306 307 308 307 306 306 306 302 303 302 303 303
316 317 317 317 317 316 315 313 311 309 307 308 309 309 310 309 308 307 307 308 308 308 307 308 308 308 308 299 298 299 304 304 305 305 306 306 307 300 297 299 299 300 300
316 314 313 313 313 314 314 311 308 307 306 308 309 310 309 308 306 307 306 307 307 307 307 308 310 308 308 296 296 297 302 300 299 302 305 304 301 297 296 298 299 298 300
311 312 310 308 310 313 312 309 307 306 308 309 309 309 309 309 308 307 306 306 306 307 308 308 312 311 308 299 296 295 297 297 297 299 302 304 299 296 295 295 302 299 299
307 307 305 304 306 311 310 307 306 308 309 309 308 307 308 307 306 307 306 307 307 306 308 307 306 307 309 299 297 295 294 296 299 301 303 304 296 295 296 299 295 296 301
307 305 304 304 306 308 309 306 307 308 309 308 307 307 307 306 307 306 307 306 307 304 304 302 301 301 304 304 297 296 295 298 300 303 301 297 297 297 300 298 297 299 303
305 306 306 304 304 306 306 307 307 308 307 306 306 307 306 304 307 306 307 306 302 301 301 298 296 297 299 299 295 296 299 300 302 301 306 301 299 298 299 300 300 301 301
307 307 306 304 303 305 305 306 307 307 306 306 306 305 306 305 304 306 306 304 298 297 298 295 295 294 294 294 292 291 293 297 297 296 304 301 300 299 298 298 298 299 299
304 305 304 304 303 303 304 305 306 306 305 305 304 302 303 303 303 305 301 295 294 293 292 291 291 294 292 291 291 291 291 291 292 301 299 298 298 298 298 298 298 298 298
Wind_Speed
13 11 9 15 11 9 7 5 8 5 4 4 6 6 6 5 3 3 3 5 5 5 5 5 5 6 4 4 6 5 5 4 4 4 4 5 7 7 4 4 3 4 4
17 15 11 8 13 13 14 12 9 6 5 5 5 4 4 5 6 5 5 6 5 6 5 5 6 6 4 6 8 6 4 6 7 5 4 4 4 3 6 3 3 6 5
15 18 14 11 8 9 8 12 12 10 6 5 2 2 1 2 2 5 7 10 11 9 9 6 5 6 6 6 8 10 11 10 9 9 5 4 4 3 2 6 6 6 5
14 17 16 13 11 10 10 7 7 10 10 8 5 3 3 5 4 3 2 3 5 3 2 5 6 6 4 7 8 7 11 11 9 7 4 6 4 4 8 4 4 5 6
15 16 18 17 15 13 12 11 9 7 3 6 4 5 7 5 6 1 2 2 6 5 1 6 8 5 4 4 7 8 9 7 4 6 5 5 3 6 8 11 8 3 4
16 12 8 14 16 14 14 13 12 7 6 2 6 4 3 5 5 4 3 3 6 6 8 6 6 8 6 6 5 5 7 6 6 5 6 6 6 5 8 9 9 10 7
15 13 13 12 8 7 13 13 11 8 5 5 2 4 3 6 6 5 3 5 6 5 5 6 5 5 5 5 5 6 6 6 6 6 5 5 7 7 6 7 9 8 8
10 10 9 6 7 6 13 16 12 9 8 13 12 10 10 6 7 8 7 6 6 5 6 5 5 6 6 6 7 5 6 7 6 7 8 7 6 5 4 4 7 10 9
12 12 11 9 8 8 17 15 17 13 13 13 11 10 9 9 10 10 9 6 8 7 6 7 6 5 5 6 7 7 8 8 7 6 6 7 8 8 9 7 5 5 11
14 12 8 18 19 18 19 17 15 13 12 12 10 9 8 10 10 9 9 9 8 8 7 7 7 8 7 8 8 7 8 9 7 7 8 8 8 10 9 8 9 8 8
16 17 18 17 17 19 18 16 15 15 13 13 12 11 10 11 9 9 10 9 9 10 10 10 9 10 9 9 8 8 9 12 12 11 10 11 10 8 9 9 9 9 10
19 16 16 19 17 16 16 14 14 13 13 12 10 10 9 8 8 8 8 8 8 7 7 7 7 6 8 7 12 12 12 12 12 11 10 11 9 11 11 9 12 10 11
19 17 16 17 17 15 15 14 13 12 11 11 10 9 9 8 8 7 7 6 6 7 6 6 6 7 8 12 11 11 11 11 10 10 10 11 11 8 9 10 9 9 9
17 17 17 16 15 15 15 14 12 11 11 11 9 9 7 7 5 7 6 7 7 7 8 7 8 7 11 10 10 10 10 10 10 11 10 10 9 11 11 9 9 9 10
20 18 17 16 16 15 13 12 10 9 9 9 8 6 6 6 6 5 5 4 6 7 7 7 7 7 10 8 8 9 10 10 11 10 9 9 13 16 10 6 10 9 9
19 19 18 17 15 14 12 10 9 8 8 7 8 6 6 7 6 6 6 7 7 8 8 9 10 7 6 5 7 9 10 10 10 11 12 12 15 11 14 11 12 11 9
18 17 17 15 12 10 10 10 9 8 7 7 7 7 6 7 7 8 8 8 7 6 6 6 6 3 4 3 7 10 9 8 8 9 10 9 9 13 11 13 15 14 15
18 17 15 14 12 11 9 8 9 7 8 8 8 8 7 7 8 8 9 8 6 6 6 7 7 6 5 4 6 11 10 9 9 9 9 11 12 10 11 13 14 15 15
14 15 14 12 11 10 9 8 8 8 8 9 8 8 8 8 8 8 8 7 7 7 8 7 7 6 7 12 11 11 11 11 12 12 12 12 11 12 13 13 13 14 14
16 15 14 12 9 8 8 9 9 8 8 8 8 8 8 7 7 8 7 5 6 6 5 5 4 6 7 8 13 13 8 10 10 11 11 10 14 19 22 12 11 12 15
16 14 12 10 9 7 8 9 8 7 7 6 8 8 7 4 7 5 4 4 4 5 5 5 3 7 6 7 15 14 10 8 8 9 9 9 15 19 19 14 11 15 18
14 13 11 9 7 7 7 9 7 5 5 9 8 7 6 6 5 4 4 4 5 7 6 9 7 7 7 12 14 12 11 11 8 8 9 11 17 16 16 13 17 19 13
13 11 9 7 8 7 8 8 6 4 7 7 6 6 7 6 4 3 4 3 4 7 7 7 7 8 8 8 16 14 14 13 9 8 13 12 13 14 12 19 15 15 8
7 7 12 10 7 8 8 6 6 6 5 5 4 4 4 4 5 5 3 4 7 6 7 7 7 7 7 8 10 10 10 12 10 12 7 9 8 11 11 14 13 10 11
5 8 7 8 8 7 7 6 5 4 4 3 3 5 4 5 3 1 3 5 7 7 6 6 6 7 8 9 12 11 9 9 11 11 8 9 11 12 12 12 12 11 11
8 7 5 7 7 7 6 6 5 4 4 4 5 4 4 4 3 4 6 11 10 9 7 5 6 6 8 14 17 16 12 13 13 7 9 11 10 10 11 10 11 10 14
Wind_Direction
166 152 156 137 139 132 140 177 190 218 166 187 180 211 215 189 193 243 235 232 240 239 245 247 244 264 261 251 260 238 227 275 286 299 275 268 260 247 229 231 242 298 303
163 155 151 143 152 157 164 174 181 180 199 204 216 195 217 204 191 190 209 219 231 218 254 234 263 272 240 254 261 259 246 239 224 231 272 279 298 262 224 224 255 250 243
178 157 155 147 144 150 166 172 171 179 195 237 252 238 328 341 258 203 213 208 213 210 209 238 244 275 316 307 282 272 249 267 278 262 235 290 237 340 117 233 227 232 244
191 156 153 155 157 160 161 164 164 165 178 200 221 256 269 261 268 260 98 92 60 40 41 262 314 340 327 289 315 308 313 273 295 317 298 278 283 288 295 263 255 242 248
192 163 165 162 167 171 160 155 156 151 173 166 229 189 221 246 267 217 81 8 71 46 164 254 265 258 229 278 309 295 279 273 273 286 290 264 265 263 261 280 277 270 259
196 186 196 166 167 169 165 156 138 140 143 222 173 199 313 303 324 7 24 20 58 61 22 36 21 47 356 11 343 343 342 323 306 301 308 290 280 281 278 270 281 276 265
185 183 196 211 159 160 111 117 113 120 117 134 72 92 32 50 41 34 17 73 82 76 44 30 21 13 12 358 1 326 324 2 355 349 320 306 305 302 298 294 289 285 281
188 198 184 172 174 184 130 117 130 123 88 60 55 56 68 66 68 49 55 28 63 57 50 40 19 26 12 7 8 337 351 357 356 350 332 314 316 314 299 296 307 306 294
203 193 197 185 182 98 83 84 86 79 81 79 65 53 56 64 56 35 50 47 30 40 31 23 23 356 14 1 9 359 354 358 336 329 342 347 329 327 336 327 283 286 303
188 183 126 77 81 86 86 91 94 95 87 81 80 72 60 57 57 52 53 43 25 17 14 13 6 1 357 10 15 358 345 328 343 335 342 345 343 333 327 325 322 318 291
114 90 86 90 88 82 90 90 93 91 85 76 67 62 60 51 46 47 37 24 21 19 11 4 7 1 351 15 358 352 354 355 349 348 345 335 333 329 330 323 318 321 326
95 105 108 94 94 100 102 99 91 88 83 82 79 70 68 64 51 46 38 21 22 11 356 352 351 343 2 16 27 7 349 346 341 335 337 343 351 342 358 346 339 329 330
101 101 105 101 106 105 103 101 99 94 90 93 79 60 55 50 39 34 33 16 14 15 358 0 351 3 7 39 19 3 350 341 333 337 346 347 346 356 344 332 325 325 318
119 119 115 117 110 105 99 97 90 86 78 72 69 58 49 62 36 43 23 32 17 17 4 356 2 9 60 36 17 359 348 336 350 353 348 340 341 334 319 321 331 330 325
129 117 115 110 103 97 100 105 106 102 93 90 85 93 85 72 62 36 47 28 20 17 358 11 4 20 66 33 19 1 344 333 341 329 328 331 328 306 303 317 320 320 313
117 115 116 114 109 101 101 103 87 59 57 60 62 47 55 58 55 53 37 27 28 19 3 21 30 44 52 31 16 355 339 327 328 335 340 337 326 338 318 295 280 266 279
117 122 117 114 116 116 104 100 94 92 78 78 64 45 55 51 42 41 30 19 25 13 356 30 21 44 38 337 358 342 319 328 323 323 307 309 315 311 309 305 291 270 258
124 129 130 128 122 103 97 96 84 74 72 61 53 53 45 45 38 36 39 14 8 12 348 23 18 3 40 268 3 330 316 305 321 319 339 320 315 335 1 330 318 310 303
120 114 117 108 105 101 91 83 68 67 66 63 56 46 40 42 37 37 33 20 349 20 353 5 4 21 345 48 20 350 334 329 339 339 325 322 329 349 332 327 314 305 300
102 103 106 97 91 77 73 78 68 56 60 57 58 47 36 48 43 42 31 344 360 20 318 336 323 305 58 57 30 9 351 350 338 330 323 337 352 339 329 331 322 321 319
112 111 100 94 82 65 73 74 68 57 55 57 63 51 36 32 66 32 20 354 7 317 299 290 350 41 49 70 32 17 5 352 329 328 333 332 338 334 325 329 347 334 321
104 107 97 80 50 45 84 77 66 53 50 57 44 52 33 16 52 42 17 37 356 318 3 28 22 8 26 52 24 2 350 331 332 327 324 329 333 326 327 346 337 339 348
135 129 121 104 80 67 51 75 62 51 62 56 40 39 53 338 16 29 28 21 350 13 17 23 10 357 357 10 9 346 338 342 343 337 318 339 349 344 354 345 343 345 347
140 131 110 105 93 76 74 62 61 46 63 66 48 29 66 330 34 338 36 27 33 13 16 19 3 349 348 3 350 343 338 343 342 346 2 355 356 13 356 358 354 346 344
65 87 94 96 92 84 78 59 58 57 43 67 34 39 19 22 345 332 7 60 54 53 20 24 4 354 349 349 324 324 329 325 316 319 7 3 7 5 359 355 350 347 349
109 98 95 97 85 75 66 66 51 38 21 321 51 59 44 344 348 291 110 65 99 98 90 89 45 356 356 331 327 327 322 314 326 16 9 7 5 3 353 349 341 342 347